Stations météo

réclame
Mon MeteoGroup
Catania/Fontanarossa, Italie (16460): Température de l'air & dewpoint: 14.10.2017 09:00:00 - 20.10.2017 09:00:00 (CEST)Catania/Fontanarossa, Italie (16460): Vitesse du vent: 14.10.2017 09:00:00 - 20.10.2017 09:00:00 (CEST)Catania/Fontanarossa, Italie (16460): Direction du vent: 14.10.2017 09:00:00 - 20.10.2017 09:00:00 (CEST)Catania/Fontanarossa, Italie (16460): reduced air pressure: 14.10.2017 09:00:00 - 20.10.2017 09:00:00 (CEST)Catania/Fontanarossa, Italie (16460): visibility: 14.10.2017 09:00:00 - 20.10.2017 09:00:00 (CEST)Catania/Fontanarossa, Italie (16460): Quantités de précipitations: 14.10.2017 09:00:00 - 20.10.2017 09:00:00 (CEST)
Date & Time tt [°C] td [°C] ff [km/h] ff [knt] dd ppp [hPa] vv [km] rr [mm]
20.10.2017 09:00:00 - - - - - - - -
20.10.2017 08:00:00 14,3 12,4 5 3 SW 1018,3 10 -
20.10.2017 07:00:00 15,0 13,0 9 5 W - 10 -
20.10.2017 06:00:00 14,0 13,0 11 6 WSW - 10 -
20.10.2017 05:00:00 13,9 12,8 8 4 WSW 1017,7 10 0,0
20.10.2017 04:00:00 14,0 13,0 9 5 SW - 10 -
20.10.2017 03:00:00 14,0 13,0 5 3 SW - 10 -
20.10.2017 02:00:00 14,7 13,5 13 7 WSW 1018,0 10 -
20.10.2017 01:00:00 15,0 14,0 8 4 W - 10 -
20.10.2017 00:00:00 17,0 15,0 2 1 W - 10 -
19.10.2017 23:00:00 18,7 15,4 8 4 NW 1017,9 10 0,0
19.10.2017 22:00:00 19,0 17,0 0 0 N - 10 -
19.10.2017 21:00:00 20,0 17,0 4 2 - - 10 -
19.10.2017 20:00:00 20,6 15,5 4 2 - 1017,5 10 -
19.10.2017 19:00:00 22,0 16,0 9 5 WSW - 10 -
19.10.2017 18:00:00 23,0 18,0 5 3 ESE - 10 -
19.10.2017 17:00:00 22,9 17,2 8 4 E 1017,0 10 0,0
19.10.2017 16:00:00 25,0 14,0 11 6 ESE - 10 -
19.10.2017 15:00:00 24,0 14,0 15 8 SE - 10 -
19.10.2017 14:00:00 25,0 14,5 13 7 SSE 1017,6 10 -
19.10.2017 13:00:00 25,0 13,0 9 5 SSW - 10 -
19.10.2017 12:00:00 23,0 11,0 11 6 W - 10 -
19.10.2017 11:00:00 22,3 13,7 11 6 WSW 1019,0 10 0,0
19.10.2017 10:00:00 19,0 14,0 15 8 WSW - 10 -
19.10.2017 09:00:00 15,0 13,0 9 5 WSW - 10 -
19.10.2017 08:00:00 12,9 11,5 9 5 WSW 1018,4 10 -
19.10.2017 07:00:00 12,0 11,0 13 7 WSW - 10 -
19.10.2017 06:00:00 13,0 12,0 9 5 SW - 10 -
19.10.2017 05:00:00 13,5 11,6 8 4 SSW 1018,4 10 0,0
19.10.2017 04:00:00 15,0 13,0 11 6 WSW - 10 -
19.10.2017 03:00:00 15,0 13,0 13 7 W - 10 -
19.10.2017 02:00:00 15,1 13,3 11 6 WSW 1019,0 10 -
19.10.2017 01:00:00 15,0 13,0 13 7 WSW - 10 -
19.10.2017 00:00:00 16,0 14,0 5 3 WSW - 7 -
18.10.2017 23:00:00 16,5 15,0 9 5 WSW 1019,2 6 0,0
18.10.2017 22:00:00 19,0 16,0 2 1 - - 10 -
18.10.2017 21:00:00 20,0 17,0 5 3 NE - 10 -
18.10.2017 20:00:00 20,6 17,5 8 4 ENE 1018,9 10 -
18.10.2017 19:00:00 21,0 18,0 13 7 ENE - 10 -
18.10.2017 18:00:00 22,0 18,0 16 9 E - 10 -
18.10.2017 17:00:00 22,2 17,8 15 8 E 1018,2 10 0,0
18.10.2017 16:00:00 23,0 17,0 16 9 E - 10 -
18.10.2017 15:00:00 23,0 17,0 15 8 E - 10 -
18.10.2017 14:00:00 23,3 16,1 13 7 ESE 1019,2 10 -
18.10.2017 13:00:00 23,0 16,0 13 7 ESE - 10 -
18.10.2017 12:00:00 24,0 15,0 4 2 - - 10 -
18.10.2017 11:00:00 22,2 14,6 4 2 - 1021,0 10 0,0
18.10.2017 10:00:00 18,0 14,0 5 3 SW - 10 -
18.10.2017 09:00:00 15,0 13,0 8 4 WSW - 10 -
18.10.2017 08:00:00 12,7 11,7 5 3 SW 1020,8 8 -
18.10.2017 07:00:00 13,0 11,0 5 3 SW - 10 -
18.10.2017 06:00:00 14,0 12,0 4 2 - - 10 -
18.10.2017 05:00:00 14,2 12,5 9 5 W 1021,1 10 0,0
18.10.2017 04:00:00 15,0 13,0 11 6 W - 10 -
18.10.2017 03:00:00 15,0 13,0 9 5 WSW - 10 -
18.10.2017 02:00:00 15,8 14,2 8 4 WSW 1022,3 10 -
18.10.2017 01:00:00 16,0 15,0 13 7 W - 10 -
18.10.2017 00:00:00 17,0 15,0 8 4 W - 10 -
17.10.2017 23:00:00 18,3 15,5 11 6 W 1023,2 10 0,0
17.10.2017 22:00:00 21,0 17,0 8 4 N - 10 -
17.10.2017 21:00:00 21,0 17,0 8 4 NNE - 10 -
17.10.2017 20:00:00 20,2 17,5 9 5 E 1022,9 10 -
17.10.2017 19:00:00 20,0 17,0 13 7 E - 10 -
17.10.2017 18:00:00 22,0 17,0 13 7 E - 10 -
17.10.2017 17:00:00 22,6 16,1 16 9 E 1023,2 10 0,0
17.10.2017 16:00:00 23,0 18,0 16 9 E - 10 -
17.10.2017 15:00:00 23,0 17,0 16 9 ESE - 10 -
17.10.2017 14:00:00 23,3 16,5 13 7 E 1024,2 10 -
17.10.2017 13:00:00 23,0 15,0 9 5 ESE - 10 -
17.10.2017 12:00:00 23,0 16,0 8 4 E - 10 -
17.10.2017 11:00:00 22,6 14,7 4 2 - 1026,2 10 0,0
17.10.2017 10:00:00 19,0 13,0 8 4 SW - 10 -
17.10.2017 09:00:00 15,0 12,0 5 3 WSW - 10 -
17.10.2017 08:00:00 12,1 10,7 8 4 WSW 1026,0 10 -
17.10.2017 07:00:00 11,0 10,0 9 5 WSW - 10 -
17.10.2017 06:00:00 11,0 10,0 5 3 WSW - 10 -
17.10.2017 05:00:00 12,1 10,5 5 3 SW 1025,3 10 0,0
17.10.2017 04:00:00 12,0 11,0 8 4 WSW - 10 -
17.10.2017 03:00:00 13,0 11,0 8 4 WSW - 10 -
17.10.2017 02:00:00 13,5 11,8 5 3 SSW 1026,2 10 -
17.10.2017 01:00:00 15,0 13,0 4 2 W - 10 -
17.10.2017 00:00:00 16,0 14,0 5 3 WSW - 10 -
16.10.2017 23:00:00 18,2 15,6 2 1 - 1026,8 10 0,0
16.10.2017 22:00:00 19,0 17,0 4 2 - - 10 -
16.10.2017 21:00:00 20,0 17,0 5 3 E - 10 -
16.10.2017 20:00:00 20,5 16,6 5 3 E 1026,7 10 -
16.10.2017 19:00:00 21,0 16,0 8 4 E - 10 -
16.10.2017 18:00:00 22,0 16,0 11 6 ESE - 10 -
16.10.2017 17:00:00 22,9 16,4 13 7 E 1026,0 10 0,0
16.10.2017 16:00:00 23,0 16,0 15 8 E - 10 -
16.10.2017 15:00:00 24,0 16,0 15 8 E - 10 -
16.10.2017 14:00:00 23,5 14,3 15 8 E 1026,9 10 -
16.10.2017 13:00:00 24,0 11,0 13 7 E - 10 -
16.10.2017 12:00:00 24,0 12,0 2 1 - - 10 -
16.10.2017 11:00:00 22,1 11,8 11 6 WSW 1027,7 10 0,0
16.10.2017 10:00:00 19,0 12,0 11 6 WSW - 10 -
16.10.2017 09:00:00 15,0 11,0 11 6 SW - 10 -
16.10.2017 08:00:00 12,2 10,3 9 5 WSW 1026,9 10 -
16.10.2017 07:00:00 11,0 10,0 9 5 W - 10 -
16.10.2017 06:00:00 11,0 10,0 4 2 WSW - 10 -
16.10.2017 05:00:00 11,8 10,6 5 3 SW 1026,7 10 0,0
16.10.2017 04:00:00 12,0 11,0 8 4 WSW - 10 -
16.10.2017 03:00:00 13,0 12,0 8 4 WSW - 10 -
16.10.2017 02:00:00 13,8 12,5 5 3 WSW 1026,9 10 -
16.10.2017 01:00:00 15,0 13,0 4 2 SW - 10 -
16.10.2017 00:00:00 16,0 14,0 8 4 W - 10 -
15.10.2017 23:00:00 16,8 14,3 5 3 WNW 1027,0 10 0,0
15.10.2017 22:00:00 17,0 15,0 11 6 WSW - 10 -
15.10.2017 21:00:00 20,0 17,0 5 3 E - 10 -
15.10.2017 20:00:00 20,4 17,3 5 3 E 1026,5 10 -
15.10.2017 19:00:00 21,0 17,0 11 6 E - 10 -
15.10.2017 18:00:00 23,0 16,0 16 9 E - 10 -
15.10.2017 17:00:00 23,2 15,9 21 11 E 1025,9 10 0,0
15.10.2017 16:00:00 23,0 16,0 18 10 E - 10 -
15.10.2017 15:00:00 24,0 16,0 16 9 E - 10 -
15.10.2017 14:00:00 23,8 16,7 16 9 E 1026,7 10 -
15.10.2017 13:00:00 23,0 17,0 16 9 E - 10 -
15.10.2017 12:00:00 24,0 15,0 11 6 E - 10 -
15.10.2017 11:00:00 22,6 13,3 8 4 SW 1028,0 10 0,0
15.10.2017 10:00:00 19,0 13,0 9 5 WSW - 10 -
15.10.2017 09:00:00 14,0 12,0 9 5 WSW - 10 -
15.10.2017 08:00:00 12,6 11,3 9 5 WSW 1027,3 10 -
15.10.2017 07:00:00 12,0 10,0 9 5 WSW - 10 -
15.10.2017 06:00:00 12,0 11,0 8 4 WSW - 10 -
15.10.2017 05:00:00 12,6 11,0 9 5 W 1026,2 10 0,0
15.10.2017 04:00:00 - - - - - - - -
15.10.2017 03:00:00 - - - - - - - -
15.10.2017 02:00:00 13,8 12,9 9 5 WSW 1026,4 10 -
15.10.2017 01:00:00 15,0 14,0 8 4 WSW - 10 -
15.10.2017 00:00:00 16,0 14,0 9 5 WSW - 10 -
14.10.2017 23:00:00 16,9 14,4 9 5 WNW 1026,3 10 0,0
14.10.2017 22:00:00 18,0 15,0 9 5 WNW - 10 -
14.10.2017 21:00:00 19,0 16,0 13 7 W - 10 -
14.10.2017 20:00:00 20,2 15,0 4 2 - 1025,7 10 -
14.10.2017 19:00:00 22,0 16,0 11 6 ENE - 10 -
14.10.2017 18:00:00 22,0 16,0 16 9 ENE - 10 -
14.10.2017 17:00:00 22,9 15,4 11 6 E 1024,7 10 0,0
14.10.2017 16:00:00 23,0 16,0 9 5 E - 10 -
14.10.2017 15:00:00 24,0 15,0 11 6 E - 10 -
14.10.2017 14:00:00 23,3 14,4 11 6 E 1025,1 10 -
14.10.2017 13:00:00 24,0 14,0 9 5 E - 10 -
14.10.2017 12:00:00 23,0 12,0 11 6 E - 10 -
14.10.2017 11:00:00 22,0 12,7 9 5 WSW 1026,6 10 0,0
14.10.2017 10:00:00 19,0 13,0 9 5 SW - 10 -
14.10.2017 09:00:00 15,0 14,0 5 3 WSW - 10 -

tt = Température de l'air
td = dewpoint
ff = Vitesse du vent
dd = Direction du vent
ppp = reduced air pressure
vv = visibility
rr = Quantités de précipitations

stations d'obs. à proximité